User: anonymous   Login
Location: Mississauga
(43.5802°N, 79.6166°W)
Time: 15:17:23
(UTC-04:00)
Language:

Cosmos 1437 Rocket - Orbit

View from above orbital plane
View from above orbital plane
View from above satellite
View from above satellite

Ground track
Ground track

The orbit data is extracted from the following two-line orbital elements,

1 13771U 83003B   18170.84223064 +.00000910 +00000-0 +53339-4 0  9996
2 13771 081.1576 299.2078 0039949 227.5158 132.2689 15.10147177929274
Epoch (UTC): 19 June 2018 20:12:48
Eccentricity: 0.0039949
inclination: 81.1576°
perigee height: 508 km
apogee height: 563 km
right ascension of ascending node: 299.2078°
argument of perigee: 227.5158°
revolutions per day: 15.10147177
mean anomaly at epoch: 132.2689°
orbit number at epoch: 92927

The dashed part of the orbit path shows where the satellite is in the earth's shadow,  

DLR